sat.trackr.live / text

‹ back to catalog

RISING 2

NORAD 39769 · 2014-029D

PAYLOAD ACTIVE UNKNOWN

§ Identity

Operator
Country
JPN
Launch date
2014-05-24
Launch site
TANSC
Launch vehicle
Mass (kg)
RCS (m²)
0.30

External: N2YO · Heavens-Above · Gunter

§ Orbital elements

Epoch: 2026-05-25T04:08:31.729344Z

Period
96.11 min
Inclination
97.6526°
Eccentricity
0.0003651
Mean motion
14.98261182 rev/d
Perigee alt
569.7 km
Apogee alt
574.8 km
Semi-major
6,950.4 km
B*
3.8322e-4
RAAN
214.1204°
Arg perigee
33.3781°
Mean anomaly
326.7671°
Rev number
65,010

§ Raw data

RISING 21 39769U 14029D   26145.17258946  .00004499  00000+0  38322-3 0  99962 39769  97.6526 214.1204 0003651  33.3781 326.7671 14.98261182650101

JSON: /api/v1/satellites/39769 · /tle

For live sub-satellite position, see the globe view (requires WebGL).

§ Visibility from observer

Set your observer location to see the next 7 days of passes ≥ 10°. The values pass through the URL so the page stays shareable.

No JS? Fill the form by hand. The geolocation button needs JavaScript.

§ Radio — SatNOGS DB

ModeDescriptionDownlinkUplink
FM S-band telemetry 2.285 GHz

1 transmitter · refreshed weekly from db.satnogs.org